Regional Weather Roundup
Issued by NWS

Home | Current Version | Previous Version | Text Only | Print | Product List | Glossary Off
Versions: 1 2 3 4 5 6 7 8 9 10 11 12 13 14 15 16 17 18 19 20 21 22 23 24 25 26 27 28 29 30 31 32 33 34 35 36 37 38 39 40 41 42 43 44 45 46 47 48 49 50

000
ASUS44 KMEG 291910
RWRTN
TENNESSEE HOURLY STATE WEATHER ROUNDUP
NATIONAL WEATHER SERVICE MEMPHIS TN
200 PM CDT MON AUG 29 2016

TNZ002-004-019-021-049-052-054-088>092-292000-
WEST TENNESSEE

CITY           SKY/WX    TMP DP  RH WIND       PRES   REMARKS
MEMPHIS INTL   MOSUNNY   96  71  44 E5G16     30.09F HX 103
NWS MEMPHIS      N/A     92 N/A N/A MISG        N/A
JACKSON        PTSUNNY   92  75  57 E5        30.11F HX 103
DYERSBURG      SUNNY     90  73  58 MISG      30.11  HX  98
UNION CITY     MOSUNNY   91  75  59 NE10      30.12S HX 102
PARIS          PTSUNNY   88  73  62 CALM      30.15F HX  96
LEXINGTON      SUNNY     90  72  55 VRB3      30.12F HX  96
$$

TNZ008-025-027-028-033-062-065-066-292000-
NORTH MIDDLE TENNESSEE

CITY           SKY/WX    TMP DP  RH WIND       PRES   REMARKS
NASHVILLE      MOSUNNY   92  69  47 VRB5      30.15F HX  97
CLARKSVILLE    MOSUNNY   90  71  53 CALM      30.14F HX  96
SMYRNA         MOSUNNY   88  68  51 MISG      30.15F HX  91
COOKEVILLE     MOSUNNY   90  72  55 VRB5      30.16F HX  96
CROSSVILLE     MOSUNNY   87  66  49 NE8       30.21F
$$

TNZ061-075-076-078-094-096-097-292000-
SOUTH MIDDLE TENNESSEE

CITY           SKY/WX    TMP DP  RH WIND       PRES   REMARKS
FAYETTEVILLE   MOSUNNY   88  72  58 NE6G14    30.13F HX  94
TULLAHOMA      MOSUNNY   88  66  48 VRB7      30.16F HX  90
WINCHESTER     MOSUNNY   88  68  51 E7        30.14F HX  91
MCMINNVILLE    MOSUNNY   90  72  55 N7        30.16F HX  96
COLUMBIA       PTSUNNY   90  75  62 N7        30.12F HX 100
SHELBYVILLE    PTSUNNY   90  73  58 N5        30.15F HX  98
$$

TNZ017-018-042-046-047-292000-
NORTHEAST TENNESSEE

CITY           SKY/WX    TMP DP  RH WIND       PRES   REMARKS
TRI CITIES     MOSUNNY   90  65  43 VRB3      30.18F HX  92
ELIZABETHTON   SUNNY     88  68  51 SW5       30.17F HX  91
$$

TNZ012-013-036-069-073-074-292000-
CENTRAL EAST TENNESSEE

CITY           SKY/WX    TMP DP  RH WIND       PRES   REMARKS
KNOXVILLE      MOSUNNY   92  55  28 E10       30.14F HX  90
OAK RIDGE      SUNNY     91  63  39 VRB3      30.17  HX  92
GATLINBURG       N/A     88  63  42 VRB5      30.15F
MORRISTOWN     SUNNY     90  54  29 E6G12     30.17F
$$

TNZ083-085-099-292000-
SOUTHEAST TENNESSEE

CITY           SKY/WX    TMP DP  RH WIND       PRES   REMARKS
CHATTANOOGA    MOSUNNY   90  65  43 NE8       30.13F HX  92
$$

SKY/WX REPORTED AS FAIR MEANS FEW OR NO CLOUDS BELOW
12 THOUSAND FEET.





USA.gov is the U.S. government's official web portal to all federal, state and local government web resources and services.